Boston, MA

3:56 AM EST on February 13, 2016 (GMT -0500)
East Milton

Weather History for KMQE - July, 2013

Change the Weather History Date:

Wednesday, July 24, 2013

  Actual Average (KBOS) Record (KBOS)
Temperature  
Mean Temperature 76 °F 74 °F  
Max Temperature 84 °F 82 °F 98 °F (1933)
Min Temperature 66 °F 66 °F 54 °F (1893)
Degree Days  
Heating Degree Days 0 0  
Month to date heating degree days 0  
Since 1 June heating degree days 55  
Since 1 July heating degree days 0  
Cooling Degree Days 11 9  
Month to date cooling degree days 205  
Year to date cooling degree days 371  
Since 1 June cooling degree days 341  
Growing Degree Days 26 (Base 50)    
Moisture  
Dew Point 66 °F    
Average Humidity 73    
Maximum Humidity 96    
Minimum Humidity 56    
Precipitation  
Precipitation 0.00 in 0.11 in 2.40 in (1988)
Month to date precipitation 2.56  
Year to date precipitation 24.40  
Sea Level Pressure  
Sea Level Pressure 29.74 in    
Wind  
Wind Speed 7 mph (WNW)    
Max Wind Speed 14 mph    
Max Gust Speed 21 mph    
T = Trace of Precipitation, MM = Missing Value Source: NWS Daily Summary

Daily Weather History Graph

Daily Weather History Graph

Search for Another Location

Airport or City:

Trip Planner

Search our weather history database for the weather conditions in past years. The results will help you decide how hot, cold, wet, or windy it might be!

Date:

Astronomy

Jul. 24, 2013 Rise Set
Actual Time 5:29 AM EDT 8:11 PM EDT
Civil Twilight 4:57 AM EDT 8:44 PM EDT
Nautical Twilight 4:16 AM EDT 9:24 PM EDT
Astronomical Twilight 3:29 AM EDT 10:11 PM EDT
Moon 9:11 PM EDT (7/24) 7:49 AM EDT (7/24)
Length of Visible Light 15h 46m
Length of Day
14h 41m
Waning Gibbous, 95% of the Moon is Illuminated
Jul 24
Waning Gibbous
Jul 29
Last Quarter
Aug 6
New
Aug 14
First Quarter
Aug 20
Full

Hourly Weather History & Observations

Time (EDT) Temp. Heat Index Dew Point Humidity Pressure Visibility Wind Dir Wind Speed Gust Speed Precip Events Conditions
12:54 AM 71.1 °F - 69.1 °F 93% 29.63 in - SW 4.6 mph - N/A   Unknown
1:54 AM 71.1 °F - 69.1 °F 93% 29.62 in - WSW 4.6 mph - N/A   Unknown
2:54 AM 71.1 °F - 69.1 °F 93% 29.62 in - WSW 4.6 mph - N/A   Unknown
3:54 AM 71.1 °F - 69.1 °F 93% 29.62 in - West 6.9 mph - N/A   Unknown
4:54 AM 71.1 °F - 69.1 °F 93% 29.63 in - West 6.9 mph - N/A   Unknown
5:54 AM 71.1 °F - 69.1 °F 93% 29.63 in - West 6.9 mph - N/A   Unknown
6:54 AM 71.1 °F - 70.0 °F 96% 29.65 in - West 5.8 mph - N/A   Unknown
7:54 AM 73.0 °F - 71.1 °F 93% 29.66 in - West 3.5 mph - N/A   Unknown
8:54 AM 77.0 °F - 72.0 °F 84% 29.68 in - West 4.6 mph - N/A   Unknown
9:54 AM 80.1 °F 83.2 °F 70.0 °F 71% 29.70 in - West 5.8 mph - N/A   Unknown
10:54 AM 82.0 °F 85.5 °F 69.1 °F 65% 29.71 in - WNW 5.8 mph - N/A   Unknown
11:54 AM 82.9 °F 86.5 °F 69.1 °F 63% 29.73 in - West 10.4 mph - N/A   Unknown
12:54 PM 82.9 °F 85.8 °F 68.0 °F 60% 29.73 in - West 10.4 mph - N/A   Unknown
1:54 PM 82.0 °F 84.5 °F 66.9 °F 60% 29.73 in - WNW 9.2 mph - N/A   Unknown
2:54 PM 81.0 °F 83.8 °F 68.0 °F 65% 29.75 in - West 11.5 mph 17.3 mph N/A   Unknown
3:54 PM 82.9 °F 85.0 °F 66.0 °F 56% 29.76 in - WNW 10.4 mph - N/A   Unknown
4:54 PM 79.0 °F - 64.0 °F 60% 29.77 in - WNW 8.1 mph - N/A   Unknown
5:54 PM 81.0 °F 82.5 °F 64.0 °F 56% 29.78 in - WNW 9.2 mph - N/A   Unknown
6:54 PM 78.1 °F - 62.1 °F 58% 29.82 in - NW 10.4 mph 16.1 mph N/A   Unknown
7:54 PM 73.9 °F - 61.0 °F 64% 29.85 in - NW 6.9 mph - N/A   Unknown
8:54 PM 73.9 °F - 62.1 °F 66% 29.88 in - North 6.9 mph - N/A   Unknown
9:54 PM 73.0 °F - 59.0 °F 61% 29.91 in - NNE 10.4 mph - N/A   Unknown
10:54 PM 70.0 °F - 57.0 °F 63% 29.94 in - North 13.8 mph 20.7 mph N/A   Unknown
11:54 PM 66.9 °F - 54.0 °F 63% 29.96 in - North 12.7 mph 20.7 mph N/A   Unknown